Miscellaneous Local Product
Issued by NWS Hastings, NE

Home | Current Version | Previous Version | Text Only | Print | Product List | Glossary Off
Versions: 1 2 3 4 5 6 7 8 9 10 11 12 13 14 15 16 17 18 19 20 21 22 23 24 25 26 27 28 29 30 31 32 33 34 35 36 37 38 39 40 41 42 43 44 45 46 47 48 49 50

000
AXUS43 KGID 241402
MISGRI

GID CWA HOURLY WEATHER ROUNDUP
NATIONAL WEATHER SERVICE HASTINGS NE
900 AM CDT MON APR 24 2017

NOTE: "FAIR" INDICATES FEW OR NO CLOUDS BELOW 12,000 FEET WITH NO
SIGNIFICANT WEATHER AND/OR OBSTRUCTIONS TO VISIBILITY.

...SOUTH CENTRAL NEBRASKA...

CITY           SKY/WX    TMP DP  RH WIND       PRES   REMARKS
GRAND ISLAND   MOSUNNY   56  36  47 S24G35    29.63F
HASTINGS       MOSUNNY   57  35  43 S17G33    29.62F
KEARNEY        CLOUDY    55  34  44 S22G35    29.58S
ORD            CLOUDY    55  34  45 S18G28    29.58F
YORK           MOSUNNY   55  36  47 S25G37    29.64F
AURORA         MOSUNNY   56  35  46 S18G30    29.63F
LEXINGTON      MOSUNNY   54  37  51 S15       29.56F
HOLDREGE       CLOUDY    54  35  48 S20G31    29.56F
HEBRON         SUNNY     56  37  48 S26G36    29.68F

...NEBRASKA PANHANDLE...

CITY           SKY/WX    TMP DP  RH WIND       PRES   REMARKS
CHADRON        CLOUDY    50  43  77 N6        29.62R
ALLIANCE       MOSUNNY   51  42  71 W14       29.62R
SCOTTSBLUFF    SUNNY     55  40  56 NW16      29.67R
SIDNEY         CLOUDY    51  37  58 NW21G28   29.65R

...WESTERN AND NORTH CENTRAL NEBRASKA...

CITY           SKY/WX    TMP DP  RH WIND       PRES   REMARKS
VALENTINE      MOSUNNY   55  35  47 NW6       29.55R
AINSWORTH      CLOUDY    53  39  58 S17       29.55S
ONEILL         CLOUDY    51  37  56 S16G24    29.57F
BROKEN BOW     CLOUDY    50  38  63 S7        29.57S
IMPERIAL       PTSUNNY   52  41  66 NW14      29.59R
NORTH PLATTE   CLOUDY    51  39  63 W3        29.58R
MCCOOK         CLOUDY    54  41  61 W9        29.55R

...EASTERN NEBRASKA...

CITY           SKY/WX    TMP DP  RH WIND       PRES   REMARKS
NORFOLK        CLOUDY    55  35  47 S13G26    29.66R
SO SIOUX CITY  CLOUDY    57  38  48 S15G28    29.69F
TEKAMAH        MOSUNNY   58  38  47 S24       29.71F
COLUMBUS       PTSUNNY   55  36  47 S22G35    29.64F
ALBION         CLOUDY    55  36  48 S16       29.64F
OMAHA EPPLEY   PTSUNNY   58  36  43 S22G32    29.75F
OFFUTT AFB     SUNNY     57  38  48 S15       29.76F
MILLARD        MOSUNNY   60  39  46 S16G24    29.75F
LINCOLN        CLOUDY    57  37  47 S22G33    29.71F
NEBRASKA CITY  MOSUNNY   57  31  38 S29       29.78F
BEATRICE       MOSUNNY   58  38  48 S20G33    29.73S
FALLS CITY     SUNNY     58  38  47 S24G35    29.80F

...NORTHERN KANSAS...

CITY           SKY/WX    TMP DP  RH WIND       PRES   REMARKS
GOODLAND       SUNNY     58  41  53 N22G29    29.59S
HILL CITY      CLOUDY    57  38  48 S16G23    29.58S
NORTON         SUNNY     55  34  44 S13       29.54F
PHILLIPSBURG   SUNNY     55  36  47 S13G22    29.60F
RUSSELL        MOSUNNY   58  37  45 S32G45    29.61F
CONCORDIA      SUNNY     56  40  55 S26G39    29.67F
SALINA         CLOUDY    60  40  47 S23G32    29.74F
TOPEKA         SUNNY     59  41  51 SE15G24   29.83F



USA.gov is the U.S. government's official web portal to all federal, state and local government web resources and services.